Starlink 32507

operational
NORAD ID: 62132 Int'l Des: 2024-222 Owner: SPXS Country: US Constellation: starlink
LEOCIRCULAR

Starlink 32507について

説明を読み込み中...

リアルタイム位置

3D地球を読み込み中...

次回通過

高度履歴

Altitude vs Time

uPlot chart will show altitude changes over time

軌道要素

1 62132U 24222U 25306.51209639 -.00011740 00000-0 -41830-3 0 9991
2 62132 42.9987 134.0022 0001330 288.8229 71.2478 15.27538406 53157
Epoch: Nov 2, 2025 • Age: 23 hours

現在のステータス

高度 484.2 km
速度 7.62 km/s
衛星直下点 -5.71°S, 105.57°E
打ち上げ日 Nov 27, 2024
運用期間 0.9 years
タイプ internet

技術仕様

分類 Payload
質量 730.00 kg
乾燥質量 700.00 kg
総質量 730.00 kg
長さ 0.30 m
直径 4.10 m
スパン 29.00 m
形状 Box + pan
製造者 SPXS
バスタイプ Starlink V2M
フェーズステータス In Orbit
所有者/国 SPXS/US

大規模コンステレーション

Loading constellations...